(456010) = 2005 YS58 = 2015 XK81

Discovered at Kitt Peak on 2005-12-24 by Spacewatch.

Orbit

Orbit type: Main Belt

Note: WebGL enabled browser required.

epoch2022-01-21.0
epoch JD2459600.5
perihelion date2021-03-19.76310
perihelion JD2459293.26310
argument of perihelion (°)309.15414
ascending node (°)131.30238
inclination (°)11.87317
eccentricity0.1001998
perihelion distance (AU)2.7019439
Tisserand w.r.t. Jupiter3.2
ΔV w.r.t. Earth (km/sec)10.9
semimajor axis (AU)3.0028264
mean anomaly (°)58.19449
mean daily motion (°/day)0.18941250
aphelion distance (AU)3.304
period (years)5.2
P-vector [x]0.15333273
P-vector [y]0.95820118
P-vector [z]0.24153586
Q-vector [x]-0.97601182
Q-vector [y]0.10862021
Q-vector [z]0.18868644
absolute magnitude17.11
phase slope0.15
uncertainty0
referenceMPO 700093
observations used125
oppositions9
arc length (days)5936
first opposition used2005
last opposition used2022
residual rms (arc-secs)0.80
perturbers coarse indicatorM-v
perturbers precise indicator003Ek
first observation date used2005-12-24.0
last observation date used2022-03-26.0
computer namePan
JD of orbit computation2457400.922696
perihelion JD uncertainty (days)5.9303E-04
argument of perihelion uncertainty (°)1.4336E-04
ascending node uncertainty (°)2.0888E-05
inclination uncertainty (°)5.8203E-06
eccentricity uncertainty 2.2764E-07
perihelion distance uncertainty (AU)7.4289E-07
Minimum Orbit Intersection Distances (in AU)
for orbit epoch: 2458200.5, reference: MPO409097
Mercury2.41339
Venus2.00511
Earth1.74533
Mars1.14412
Jupiter1.90281
Saturn6.36264
Uranus15.1906
Neptune26.8671

Observations

135 total observations over interval: 2005 12 24.46689 – 2022 03 26.302291
These data are available for download (format description).

